#�ϑ�����,���ϕ���,���ϕ���,�ő啗��,�ő啗����������,�ő�u�ԕ���,�ő�u�ԕ�����������
#(�N����),(m/s)   ,(16����),(m/s)   ,(16����)        ,(m/s)       ,(16����)            
2014/3/8 0:01,4.5,16,4.9,16,9.7,15
2014/3/8 0:02,4.7,16,4.7,16,9.1,16
2014/3/8 0:03,4.8,16,4.8,16,9.7,16
2014/3/8 0:04,5,16,5,16,10.5,16
2014/3/8 0:05,5.1,16,5.1,16,5.8,16
2014/3/8 0:06,4.9,16,5.1,16,3.6,2
2014/3/8 0:07,4.5,16,4.9,16,4.2,15
2014/3/8 0:08,4.2,16,4.4,16,10,15
2014/3/8 0:09,4.2,16,4.3,16,9.4,16
2014/3/8 0:10,4.1,16,4.1,16,11.1,16
2014/3/8 0:11,4.5,16,4.5,16,10.8,16
2014/3/8 0:12,4.4,16,4.5,16,7.9,16
2014/3/8 0:13,4.5,16,4.5,16,9.5,1
2014/3/8 0:14,4.2,16,4.4,16,7.6,15
2014/3/8 0:15,4.5,16,4.5,16,12.1,16
2014/3/8 0:16,5,16,5,16,9.7,1
2014/3/8 0:17,5.4,16,5.4,16,12.8,1
2014/3/8 0:18,5.4,16,5.5,16,6.8,16
2014/3/8 0:19,5.1,16,5.4,16,4.1,16
2014/3/8 0:20,5.1,16,5.2,16,7.9,15
2014/3/8 0:21,4.7,16,5.2,16,8.1,2
2014/3/8 0:22,4.6,16,4.7,16,9.8,16
2014/3/8 0:23,4.7,16,4.7,16,10.7,15
2014/3/8 0:24,4.6,16,4.7,16,5.4,13
2014/3/8 0:25,4.2,16,4.6,16,4.3,15
2014/3/8 0:26,3.8,16,4.2,16,3.9,5
2014/3/8 0:27,3.3,16,3.7,16,4.5,15
2014/3/8 0:28,3.2,16,3.3,16,6.4,15
2014/3/8 0:29,3.2,16,3.2,16,5.6,1
2014/3/8 0:30,3.2,16,3.3,16,9.1,15
2014/3/8 0:31,3.5,16,3.5,16,11.5,15
2014/3/8 0:32,3.9,16,3.9,16,12.3,16
2014/3/8 0:33,3.6,15,3.9,16,7.1,12
2014/3/8 0:34,3.6,16,3.6,16,6.1,1
2014/3/8 0:35,4.1,1,4.1,16,11.4,1
2014/3/8 0:36,4.3,1,4.3,1,5.8,2
2014/3/8 0:37,5.2,16,5.2,16,17.8,16
2014/3/8 0:38,5.4,1,5.4,1,10.6,14
2014/3/8 0:39,5.3,16,5.4,1,2.7,16
2014/3/8 0:40,4.9,16,5.3,1,3.3,13
2014/3/8 0:41,4.6,16,4.9,1,5.5,13
2014/3/8 0:42,4.1,16,4.6,1,6.2,16
2014/3/8 0:43,4.1,16,4.1,1,7.4,1
2014/3/8 0:44,4.3,16,4.3,1,11.9,1
2014/3/8 0:45,4.1,16,4.3,1,10,14
2014/3/8 0:46,4,16,4.1,1,6.2,1
2014/3/8 0:47,3.1,16,4,1,3,2
2014/3/8 0:48,2.9,16,3.1,1,8.3,16
2014/3/8 0:49,3.2,16,3.2,16,7.5,15
2014/3/8 0:50,3.2,16,3.2,16,3.5,1
2014/3/8 0:51,3.1,1,3.2,16,2.7,6
2014/3/8 0:52,3,1,3.1,16,3,6
2014/3/8 0:53,2.7,2,3,16,2.4,1
2014/3/8 0:54,2.3,2,2.7,16,2.2,4
2014/3/8 0:55,1.9,2,2.3,16,1.9,1
2014/3/8 0:56,1.8,2,1.9,16,4.5,16
2014/3/8 0:57,2.1,2,2.1,16,9.9,15
2014/3/8 0:58,2.2,1,2.3,16,7.4,15
2014/3/8 0:59,2,2,2.2,16,4.9,9
2014/3/8 1:00,2,2,2.1,16,4.5,9
2014/3/8 1:01,2.1,2,2.1,1,4.3,1
2014/3/8 1:02,2.4,2,2.4,1,7.1,16
2014/3/8 1:03,2.6,1,2.6,2,6.4,15
2014/3/8 1:04,2.8,1,2.8,1,5.6,15
2014/3/8 1:05,3.1,1,3.1,1,7,3
2014/3/8 1:06,3.3,16,3.3,16,6.8,15
2014/3/8 1:07,3,16,3.3,16,4.8,16
2014/3/8 1:08,3,1,3,16,4.5,16
2014/3/8 1:09,3,16,3,16,4.4,14
2014/3/8 1:10,3.2,16,3.2,16,6.4,15
2014/3/8 1:11,3.2,16,3.3,16,5.8,16
2014/3/8 1:12,3.1,16,3.2,16,5,1
2014/3/8 1:13,3.3,16,3.3,16,8.1,16
2014/3/8 1:14,3.5,16,3.5,16,10,1
2014/3/8 1:15,3.4,16,3.5,16,4.2,13
2014/3/8 1:16,3.1,16,3.4,16,3.7,12
2014/3/8 1:17,3.2,16,3.2,16,5.4,16
2014/3/8 1:18,3.2,15,3.2,16,8.1,16
2014/3/8 1:19,3.4,16,3.4,16,10.8,16
2014/3/8 1:20,3.4,16,3.4,16,8.7,16
2014/3/8 1:21,3.5,16,3.5,16,6.3,1
2014/3/8 1:22,3.5,16,3.6,16,4.4,1
2014/3/8 1:23,3.4,16,3.4,16,7,2
2014/3/8 1:24,3.3,16,3.3,16,6.1,2
2014/3/8 1:25,3.4,1,3.4,16,6.3,16
2014/3/8 1:26,3.7,1,3.7,1,8.2,16
2014/3/8 1:27,3.7,1,3.8,1,5.1,15
2014/3/8 1:28,3.5,1,3.6,1,4.5,10
2014/3/8 1:29,3.3,1,3.4,1,5.5,16
2014/3/8 1:30,3.2,1,3.3,1,5.8,1
2014/3/8 1:31,3,1,3.2,1,4.8,2
2014/3/8 1:32,3.2,1,3.2,1,8.6,2
2014/3/8 1:33,3.5,16,3.6,1,13.2,16
2014/3/8 1:34,3.3,16,3.5,1,5,9
2014/3/8 1:35,3.1,16,3.3,1,5.7,9
2014/3/8 1:36,2.8,16,3.1,1,1.9,8
2014/3/8 1:37,2.8,15,2.8,1,3.3,14
2014/3/8 1:38,2.9,15,2.9,16,4.8,8
2014/3/8 1:39,3.1,15,3.1,16,7.1,8
2014/3/8 1:40,3.1,13,3.2,16,5.4,8
2014/3/8 1:41,3.1,14,3.1,16,5,16
2014/3/8 1:42,3.4,14,3.4,16,13.6,15
2014/3/8 1:43,2.9,14,3.3,16,7.2,15
2014/3/8 1:44,3.1,15,3.1,14,7.2,16
2014/3/8 1:45,3.3,16,3.3,14,7.2,16
2014/3/8 1:46,3.5,16,3.5,16,7.2,16
2014/3/8 1:47,3.6,1,3.6,1,3.7,1
2014/3/8 1:48,3.5,1,3.6,1,3.7,16
2014/3/8 1:49,3.3,1,3.5,1,3.5,15
2014/3/8 1:50,3.2,1,3.2,1,2.2,4
2014/3/8 1:51,3,1,3.2,1,2.6,12
2014/3/8 1:52,2.8,1,3,1,6.7,9
2014/3/8 1:53,3,1,3,1,8.9,9
2014/3/8 1:54,2.7,1,3,1,8.5,8
2014/3/8 1:55,2.5,2,2.7,1,2.5,3
2014/3/8 1:56,2.2,2,2.4,1,1.8,12
2014/3/8 1:57,2,3,2.2,1,1.6,7
2014/3/8 1:58,1.8,3,2,1,1.1,1
2014/3/8 1:59,1.7,6,1.8,1,1.3,9
2014/3/8 2:00,1.6,8,1.7,1,1.8,8
2014/3/8 2:01,1.6,8,1.6,1,1.6,7
2014/3/8 2:02,1.4,6,1.6,1,2,2
2014/3/8 2:03,1.1,5,1.4,1,2.5,4
2014/3/8 2:04,1,5,1.1,1,2.1,3
2014/3/8 2:05,1,5,1,2,1.4,4
2014/3/8 2:06,1.1,5,1.1,2,3.6,7
2014/3/8 2:07,1.4,6,1.4,3,4.9,8
2014/3/8 2:08,1.7,6,1.7,3,5.1,7
2014/3/8 2:09,2,6,2,6,5,8
2014/3/8 2:10,2.2,6,2.2,6,5.4,8
2014/3/8 2:11,2.5,7,2.5,6,5.8,8
2014/3/8 2:12,2.7,7,2.7,7,3.8,9
2014/3/8 2:13,2.7,7,2.7,7,3.5,8
2014/3/8 2:14,2.8,7,2.8,7,4.2,8
2014/3/8 2:15,3,8,3,8,4.3,8
2014/3/8 2:16,3,8,3,8,4.7,8
2014/3/8 2:17,3,8,3,8,4.4,8
2014/3/8 2:18,2.8,8,2.9,8,3.7,7
2014/3/8 2:19,2.8,8,2.8,8,4.2,6
2014/3/8 2:20,2.7,8,2.8,8,5.5,8
2014/3/8 2:21,2.5,8,2.7,8,3.8,8
2014/3/8 2:22,2.4,8,2.5,8,4.2,9
2014/3/8 2:23,2.3,8,2.4,8,4.3,9
2014/3/8 2:24,2.2,8,2.3,8,3,8
2014/3/8 2:25,2.2,8,2.3,8,4.2,7
2014/3/8 2:26,2.2,8,2.2,8,3.9,9
2014/3/8 2:27,2.1,9,2.2,8,3,6
2014/3/8 2:28,2,9,2.1,8,2.7,9
2014/3/8 2:29,1.8,9,1.9,8,2.5,9
2014/3/8 2:30,1.6,9,1.8,8,1.5,9
2014/3/8 2:31,1.6,9,1.6,8,3,8
2014/3/8 2:32,1.6,9,1.6,8,2.5,7
2014/3/8 2:33,1.7,9,1.7,8,2.9,8
2014/3/8 2:34,1.7,9,1.7,8,3.2,9
2014/3/8 2:35,1.6,9,1.7,8,3,8
2014/3/8 2:36,1.6,8,1.6,8,3.1,8
2014/3/8 2:37,1.6,8,1.6,9,2.2,7
2014/3/8 2:38,1.6,8,1.7,9,2,8
2014/3/8 2:39,1.5,8,1.5,9,0.8,6
2014/3/8 2:40,1.5,8,1.5,9,2.2,7
2014/3/8 2:41,1.5,8,1.6,9,2.5,9
2014/3/8 2:42,1.5,8,1.6,9,3,7
2014/3/8 2:43,1.4,7,1.5,9,2,2
2014/3/8 2:44,1.3,7,1.4,9,1.3,1
2014/3/8 2:45,1.2,7,1.2,8,0.8,4
2014/3/8 2:46,1,7,1.2,8,1.6,6
2014/3/8 2:47,0.9,6,1,8,0.8,8
2014/3/8 2:48,0.9,6,0.9,8,1.8,12
2014/3/8 2:49,0.9,8,0.9,8,1.3,12
2014/3/8 2:50,0.9,10,0.9,8,1.1,12
2014/3/8 2:51,0.8,12,0.9,8,0.9,12
2014/3/8 2:52,0.6,13,0.7,8,0.8,1
2014/3/8 2:53,0.6,12,0.6,7,1,6
2014/3/8 2:54,0.6,10,0.6,7,0.9,5
2014/3/8 2:55,0.6,10,0.6,7,1.5,11
2014/3/8 2:56,0.6,11,0.6,7,1.1,11
2014/3/8 2:57,0.7,11,0.7,6,3,16
2014/3/8 2:58,0.8,11,0.8,6,3.9,1
2014/3/8 2:59,0.9,8,0.9,8,3,6
2014/3/8 3:00,1,6,1,6,2.5,5
2014/3/8 3:01,1,5,1,6,1.6,4
2014/3/8 3:02,1.2,6,1.2,6,3.6,8
2014/3/8 3:03,1.4,6,1.4,6,4.7,8
2014/3/8 3:04,1.6,6,1.6,6,4.7,8
2014/3/8 3:05,1.8,6,1.8,6,4.2,9
2014/3/8 3:06,1.8,6,1.8,6,1.8,11
2014/3/8 3:07,1.7,6,1.8,6,0.8,14
2014/3/8 3:08,1.7,6,1.7,6,2.4,5
2014/3/8 3:09,1.6,6,1.7,6,1.9,2
2014/3/8 3:10,1.6,6,1.6,6,1.5,2
2014/3/8 3:11,1.5,6,1.6,6,0.9,3
2014/3/8 3:12,1.3,5,1.5,6,0.5,6
2014/3/8 3:13,1.1,5,1.3,6,0.4,9
2014/3/8 3:14,0.8,4,1,6,0.6,1
2014/3/8 3:15,0.6,3,0.8,6,2.7,7
2014/3/8 3:16,0.7,3,0.7,6,1.8,9
2014/3/8 3:17,0.7,4,0.7,6,0.9,8
2014/3/8 3:18,0.5,4,0.7,6,0.9,9
2014/3/8 3:19,0.4,4,0.5,6,0.8,16
2014/3/8 3:20,0.4,10,0.4,6,1.3,10
2014/3/8 3:21,0.4,9,0.4,6,1.1,9
2014/3/8 3:22,0.5,9,0.5,5,1,7
2014/3/8 3:23,0.5,10,0.5,5,1.3,9
2014/3/8 3:24,0.6,9,0.6,4,1,10
2014/3/8 3:25,0.6,9,0.6,3,1.9,8
2014/3/8 3:26,0.7,8,0.7,3,2.1,8
2014/3/8 3:27,0.7,8,0.7,4,1.5,8
2014/3/8 3:28,0.8,8,0.8,8,1.9,8
2014/3/8 3:29,0.9,8,0.9,8,3,8
2014/3/8 3:30,1.1,8,1.1,8,3,8
2014/3/8 3:31,1.2,8,1.2,8,3,8
2014/3/8 3:32,1.4,8,1.4,8,3.6,8
2014/3/8 3:33,1.5,8,1.5,8,3.2,8
2014/3/8 3:34,1.6,8,1.6,8,2.4,8
2014/3/8 3:35,1.6,8,1.6,8,2,8
2014/3/8 3:36,1.7,8,1.7,8,3,10
2014/3/8 3:37,1.8,9,1.8,8,3.5,9
2014/3/8 3:38,1.8,9,1.8,8,2.6,10
2014/3/8 3:39,1.8,9,1.8,8,3,11
2014/3/8 3:40,1.8,9,1.8,8,4.2,11
2014/3/8 3:41,1.9,10,1.9,9,3.7,11
2014/3/8 3:42,1.9,10,1.9,9,3.5,11
2014/3/8 3:43,1.9,10,1.9,9,3.5,11
2014/3/8 3:44,2,10,2,10,3.2,10
2014/3/8 3:45,2.1,10,2.1,10,2.9,11
2014/3/8 3:46,2.1,10,2.1,10,2.5,12
2014/3/8 3:47,2,10,2.1,10,1.9,9
2014/3/8 3:48,2,10,2,10,3,10
2014/3/8 3:49,2,10,2.1,10,2.2,11
2014/3/8 3:50,2,11,2,10,2.6,11
2014/3/8 3:51,1.8,10,2,10,2,9
2014/3/8 3:52,1.7,10,1.8,10,2,9
2014/3/8 3:53,1.7,10,1.7,10,2.9,10
2014/3/8 3:54,1.6,10,1.6,10,2.7,9
2014/3/8 3:55,1.6,10,1.6,10,2.7,9
2014/3/8 3:56,1.5,10,1.6,10,2,10
2014/3/8 3:57,1.5,10,1.5,10,2.6,9
2014/3/8 3:58,1.5,10,1.5,10,2.9,10
2014/3/8 3:59,1.6,10,1.6,10,3.8,11
2014/3/8 4:00,1.6,10,1.6,10,3.2,9
2014/3/8 4:01,1.8,10,1.8,10,5.4,10
2014/3/8 4:02,1.9,10,1.9,10,4.9,9
2014/3/8 4:03,1.9,10,1.9,10,4.1,9
2014/3/8 4:04,2.1,10,2.1,10,5.8,10
2014/3/8 4:05,2,10,2,10,3.3,10
2014/3/8 4:06,2.1,10,2.1,10,3.5,10
2014/3/8 4:07,2.3,10,2.3,10,4.5,11
2014/3/8 4:08,2.4,10,2.4,10,5.2,12
2014/3/8 4:09,2.4,10,2.4,10,3.3,11
2014/3/8 4:10,2.4,10,2.4,10,3.3,9
2014/3/8 4:11,2.3,10,2.4,10,6.2,10
2014/3/8 4:12,2.3,10,2.3,10,5.1,10
2014/3/8 4:13,2.4,10,2.4,10,5,9
2014/3/8 4:14,2.3,10,2.4,10,4.1,10
2014/3/8 4:15,2.3,10,2.3,10,3.6,9
2014/3/8 4:16,2.3,10,2.3,10,2.9,11
2014/3/8 4:17,2.2,10,2.3,10,4.9,8
2014/3/8 4:18,2.3,10,2.3,10,5.4,11
2014/3/8 4:19,2.4,10,2.4,10,7,11
2014/3/8 4:20,2.6,10,2.6,10,6.8,11
2014/3/8 4:21,2.8,10,2.8,10,8.3,10
2014/3/8 4:22,2.7,11,2.8,10,3,11
2014/3/8 4:23,2.6,11,2.7,10,2.5,13
2014/3/8 4:24,2.5,11,2.5,10,3.3,9
2014/3/8 4:25,2.6,11,2.6,10,5,9
2014/3/8 4:26,2.6,11,2.6,10,4.3,10
2014/3/8 4:27,2.6,11,2.6,10,3.3,10
2014/3/8 4:28,2.6,11,2.7,10,4.3,11
2014/3/8 4:29,2.4,11,2.5,10,3,10
2014/3/8 4:30,2.1,11,2.4,10,1.6,9
2014/3/8 4:31,1.8,11,2.1,10,2.2,8
2014/3/8 4:32,1.8,11,1.8,11,2.5,9
2014/3/8 4:33,1.7,11,1.8,11,1.3,15
2014/3/8 4:34,1.5,11,1.6,11,1.6,4
2014/3/8 4:35,1.4,11,1.5,11,2.4,15
2014/3/8 4:36,1.4,11,1.4,11,3.9,16
2014/3/8 4:37,1.4,12,1.5,11,3.1,16
2014/3/8 4:38,1.3,12,1.4,11,1.4,7
2014/3/8 4:39,1.2,12,1.3,11,2.4,7
2014/3/8 4:40,1.3,11,1.3,11,2.4,9
2014/3/8 4:41,1.3,8,1.3,11,2.2,9
2014/3/8 4:42,1.4,7,1.4,11,2.5,8
2014/3/8 4:43,1.5,8,1.5,11,2.7,9
2014/3/8 4:44,1.6,8,1.6,8,1.9,13
2014/3/8 4:45,1.5,9,1.6,8,1.5,10
2014/3/8 4:46,1.4,8,1.5,8,2.4,9
2014/3/8 4:47,1.3,8,1.4,8,2.1,8
2014/3/8 4:48,1.3,9,1.3,8,2,10
2014/3/8 4:49,1.2,9,1.3,8,1.1,12
2014/3/8 4:50,1.1,9,1.2,8,0.6,9
2014/3/8 4:51,1,9,1.1,8,0.8,5
2014/3/8 4:52,0.9,10,1,8,1.6,12
2014/3/8 4:53,0.8,10,0.9,8,1.6,12
2014/3/8 4:54,0.7,9,0.8,8,1.5,4
2014/3/8 4:55,0.7,8,0.7,9,1.3,5
2014/3/8 4:56,0.7,7,0.7,8,1.1,4
2014/3/8 4:57,0.7,6,0.7,8,1,3
2014/3/8 4:58,0.6,6,0.7,9,1.9,9
2014/3/8 4:59,0.7,6,0.7,9,3,10
2014/3/8 5:00,0.7,6,0.7,9,1.5,10
2014/3/8 5:01,0.8,7,0.8,9,1.9,9
2014/3/8 5:02,0.9,7,0.9,10,4.2,8
2014/3/8 5:03,0.9,7,0.9,7,1.6,13
2014/3/8 5:04,1,9,1,8,2.4,16
2014/3/8 5:05,1.1,11,1.1,10,2.9,15
2014/3/8 5:06,1.2,12,1.2,12,2.7,14
2014/3/8 5:07,1.2,12,1.2,12,1.6,14
2014/3/8 5:08,1.1,12,1.2,12,1,8
2014/3/8 5:09,1.1,12,1.1,12,1.4,8
2014/3/8 5:10,1.2,12,1.2,12,1.8,12
2014/3/8 5:11,1.2,12,1.2,12,1.9,11
2014/3/8 5:12,1.2,12,1.2,12,2.4,11
2014/3/8 5:13,1.2,12,1.2,12,2,11
2014/3/8 5:14,1.3,11,1.3,12,5.6,11
2014/3/8 5:15,1.5,11,1.5,11,5.6,11
2014/3/8 5:16,1.6,11,1.6,11,7.6,11
2014/3/8 5:17,2.1,10,2.1,10,8.3,10
2014/3/8 5:18,2.3,11,2.3,11,5.2,10
2014/3/8 5:19,2.5,11,2.5,11,5.2,11
2014/3/8 5:20,2.5,11,2.5,11,4.8,12
2014/3/8 5:21,2.6,11,2.6,11,4.7,11
2014/3/8 5:22,2.5,11,2.6,11,1.5,16
2014/3/8 5:23,2.5,11,2.5,11,2.5,12
2014/3/8 5:24,2.4,11,2.5,11,4.2,11
2014/3/8 5:25,2.3,11,2.4,11,4.2,10
2014/3/8 5:26,2.4,11,2.4,11,4.7,11
2014/3/8 5:27,2.2,11,2.3,11,7.4,10
2014/3/8 5:28,2.5,11,2.5,11,7.7,10
2014/3/8 5:29,2.7,11,2.7,11,8.5,11
2014/3/8 5:30,2.8,11,2.8,11,4.2,11
2014/3/8 5:31,2.8,11,2.8,11,3.9,13
2014/3/8 5:32,2.9,11,2.9,11,3.5,12
2014/3/8 5:33,3.2,11,3.2,11,6.5,11
2014/3/8 5:34,3.4,11,3.4,11,5.2,12
2014/3/8 5:35,3.5,11,3.5,11,9.2,10
2014/3/8 5:36,3.6,11,3.6,11,8.9,11
2014/3/8 5:37,3.7,11,3.8,11,8.1,12
2014/3/8 5:38,3.6,12,3.7,11,5.8,13
2014/3/8 5:39,3.6,12,3.6,11,8.3,13
2014/3/8 5:40,3.8,12,3.8,11,9.1,12
2014/3/8 5:41,3.9,12,3.9,12,6.8,15
2014/3/8 5:42,4.2,12,4.2,12,6.9,12
2014/3/8 5:43,4.4,12,4.4,12,8.2,13
2014/3/8 5:44,4.5,13,4.5,13,7.8,15
2014/3/8 5:45,4.4,13,4.5,13,4.4,15
2014/3/8 5:46,4.2,13,4.3,13,4.3,14
2014/3/8 5:47,4.1,13,4.2,13,5.2,12
2014/3/8 5:48,4.2,13,4.2,13,6.3,13
2014/3/8 5:49,4,13,4.2,13,5.7,14
2014/3/8 5:50,4,13,4,13,7.4,13
2014/3/8 5:51,4.1,13,4.1,13,6.7,12
2014/3/8 5:52,4.2,13,4.2,13,8.1,13
2014/3/8 5:53,4.1,13,4.2,13,6.3,13
2014/3/8 5:54,4,13,4.1,13,5.5,14
2014/3/8 5:55,4.1,13,4.1,13,5,13
2014/3/8 5:56,4.2,13,4.2,13,5.2,12
2014/3/8 5:57,4.4,13,4.4,13,7,13
2014/3/8 5:58,4.1,13,4.4,13,4.9,15
2014/3/8 5:59,4,13,4.1,13,3.8,14
2014/3/8 6:00,3.6,13,3.9,13,2.9,13
2014/3/8 6:01,3.4,13,3.6,13,6,13
2014/3/8 6:02,3.2,13,3.4,13,4.5,13
2014/3/8 6:03,3,14,3.1,13,3.9,16
2014/3/8 6:04,2.8,14,3,13,3.3,15
2014/3/8 6:05,2.8,14,2.8,13,4.3,14
2014/3/8 6:06,2.7,14,2.7,13,5.4,15
2014/3/8 6:07,2.4,14,2.7,13,3.3,14
2014/3/8 6:08,2.4,14,2.4,13,5.5,16
2014/3/8 6:09,2.3,14,2.4,13,4.4,14
2014/3/8 6:10,2.5,14,2.5,13,4.7,16
2014/3/8 6:11,2.5,14,2.5,13,4.9,16
2014/3/8 6:12,2.5,14,2.5,13,3.7,14
2014/3/8 6:13,2.4,14,2.5,14,3.6,13
2014/3/8 6:14,2.4,14,2.4,14,3.5,13
2014/3/8 6:15,2.4,14,2.4,14,4.7,12
2014/3/8 6:16,2.2,14,2.4,14,4.3,12
2014/3/8 6:17,2.2,14,2.2,14,3.2,15
2014/3/8 6:18,2.2,14,2.2,14,4.4,15
2014/3/8 6:19,2.2,14,2.2,14,3.8,14
2014/3/8 6:20,2.1,14,2.2,14,2.9,13
2014/3/8 6:21,2.1,14,2.1,14,4.4,13
2014/3/8 6:22,2.1,14,2.1,14,4.4,14
2014/3/8 6:23,2.1,14,2.2,14,6,1
2014/3/8 6:24,2,14,2.1,14,2.5,1
2014/3/8 6:25,1.9,14,2,14,2.4,13
2014/3/8 6:26,2,14,2,14,4.5,13
2014/3/8 6:27,2.1,14,2.1,14,3.1,13
2014/3/8 6:28,2.1,14,2.1,14,4.7,12
2014/3/8 6:29,2.1,14,2.1,14,3.6,14
2014/3/8 6:30,2.2,14,2.2,14,4.1,13
2014/3/8 6:31,2.2,14,2.3,14,3.5,14
2014/3/8 6:32,2.1,14,2.2,14,2.2,14
2014/3/8 6:33,2,13,2.1,14,3.1,12
2014/3/8 6:34,1.9,13,2,14,2,12
2014/3/8 6:35,1.9,13,1.9,14,2.1,9
2014/3/8 6:36,1.9,13,1.9,14,3.9,11
2014/3/8 6:37,2,12,2,14,4.5,10
2014/3/8 6:38,2,12,2,14,3.8,10
2014/3/8 6:39,2,12,2,14,3.3,11
2014/3/8 6:40,1.9,11,2,14,2.5,11
2014/3/8 6:41,1.9,11,1.9,14,3.2,10
2014/3/8 6:42,2,11,2,14,2.4,12
2014/3/8 6:43,2,11,2,13,2.1,12
2014/3/8 6:44,2.1,11,2.1,11,2.5,14
2014/3/8 6:45,2.2,12,2.2,12,2.2,14
2014/3/8 6:46,2.1,12,2.2,12,2,15
2014/3/8 6:47,1.9,12,2,12,1.6,11
2014/3/8 6:48,1.7,12,1.8,12,2.6,12
2014/3/8 6:49,1.6,12,1.7,12,2.2,11
2014/3/8 6:50,1.5,12,1.6,12,1.6,12
2014/3/8 6:51,1.4,12,1.5,12,2.5,8
2014/3/8 6:52,1.3,12,1.4,12,1.6,10
2014/3/8 6:53,1.3,12,1.3,12,2.6,9
2014/3/8 6:54,1.2,11,1.3,12,1.8,10
2014/3/8 6:55,1.2,11,1.2,12,2.7,10
2014/3/8 6:56,1.2,11,1.2,12,2.6,10
2014/3/8 6:57,1.3,10,1.3,12,2.2,10
2014/3/8 6:58,1.3,10,1.3,12,2.4,10
2014/3/8 6:59,1.2,10,1.2,12,1.3,11
2014/3/8 7:00,1.3,10,1.3,12,1.5,7
2014/3/8 7:01,1.2,9,1.3,12,1.6,5
2014/3/8 7:02,1.3,9,1.3,12,1.9,5
2014/3/8 7:03,1.3,8,1.3,12,1.8,5
2014/3/8 7:04,1.3,7,1.3,10,1.9,4
2014/3/8 7:05,1.3,6,1.3,10,2.6,4
2014/3/8 7:06,1.3,6,1.3,10,2.2,4
2014/3/8 7:07,1.3,5,1.3,10,1.9,3
2014/3/8 7:08,1.2,5,1.3,10,1.3,4
2014/3/8 7:09,1.2,5,1.2,10,0.9,5
2014/3/8 7:10,1.2,5,1.2,10,1.6,6
2014/3/8 7:11,1.2,5,1.2,9,1.4,6
2014/3/8 7:12,1.1,5,1.2,9,0.5,16
2014/3/8 7:13,1,5,1.1,8,0.6,8
2014/3/8 7:14,0.9,5,1,7,0.8,5
2014/3/8 7:15,0.7,6,0.9,6,0.8,6
2014/3/8 7:16,0.6,6,0.7,6,0.6,5
2014/3/8 7:17,0.5,6,0.6,5,0.8,6
2014/3/8 7:18,0.5,6,0.5,5,0.6,1
2014/3/8 7:19,0.5,5,0.5,5,0.8,4
2014/3/8 7:20,0.4,5,0.5,5,0.6,4
2014/3/8 7:21,0.3,5,0.4,5,0.3,4
2014/3/8 7:22,0.4,5,0.4,5,0.8,7
2014/3/8 7:23,0.3,5,0.4,5,0.6,7
2014/3/8 7:24,0.3,5,0.3,5,0.3,8
2014/3/8 7:25,0.3,5,0.3,6,1,7
2014/3/8 7:26,0.3,5,0.3,6,1,7
2014/3/8 7:27,0.3,6,0.3,6,0.4,10
2014/3/8 7:28,0.3,6,0.3,6,0.6,10
2014/3/8 7:29,0.3,7,0.3,5,0.8,10
2014/3/8 7:30,0.3,8,0.3,5,0.6,10
2014/3/8 7:31,0.3,8,0.3,5,0.3,10
2014/3/8 7:32,0.3,9,0.3,5,0.3,10
2014/3/8 7:33,0.3,9,0.3,5,0.5,10
2014/3/8 7:34,0.3,10,0.3,5,0.8,10
2014/3/8 7:35,0.3,10,0.3,5,0.4,10
2014/3/8 7:36,0.3,10,0.3,5,0.6,10
2014/3/8 7:37,0.3,10,0.3,6,1,10
2014/3/8 7:38,0.3,10,0.3,6,0.9,10
2014/3/8 7:39,0.3,10,0.4,10,1,10
2014/3/8 7:40,0.4,10,0.4,10,1.3,11
2014/3/8 7:41,0.4,10,0.4,10,1,9
2014/3/8 7:42,0.5,10,0.5,10,1.3,10
2014/3/8 7:43,0.5,10,0.5,10,1.5,9
2014/3/8 7:44,0.5,10,0.5,10,0.5,13
2014/3/8 7:45,0.5,10,0.5,10,1.4,8
2014/3/8 7:46,0.6,10,0.6,10,1.4,10
2014/3/8 7:47,0.6,10,0.6,10,1.5,10
2014/3/8 7:48,0.6,10,0.6,10,1.5,9
2014/3/8 7:49,0.7,10,0.7,10,2.9,10
2014/3/8 7:50,0.8,10,0.8,10,2.7,8
2014/3/8 7:51,0.9,10,0.9,10,3.1,9
2014/3/8 7:52,1.1,10,1.1,10,3.5,9
2014/3/8 7:53,1.2,10,1.2,10,3.7,9
2014/3/8 7:54,1.5,10,1.5,10,3.8,10
2014/3/8 7:55,1.6,10,1.6,10,3.7,10
2014/3/8 7:56,1.7,10,1.7,10,3.6,9
2014/3/8 7:57,1.7,10,1.7,10,2.5,10
2014/3/8 7:58,1.8,10,1.8,10,2.7,9
2014/3/8 7:59,1.8,10,1.9,10,1.8,9
2014/3/8 8:00,1.8,10,1.8,10,3.5,10
2014/3/8 8:01,1.7,10,1.8,10,2,9
2014/3/8 8:02,1.6,10,1.7,10,1.8,10
2014/3/8 8:03,1.5,10,1.6,10,3.2,8
2014/3/8 8:04,1.5,10,1.5,10,4.7,10
2014/3/8 8:05,1.6,10,1.6,10,4.5,9
2014/3/8 8:06,1.7,10,1.7,10,4.4,10
2014/3/8 8:07,1.9,10,1.9,10,3.8,10
2014/3/8 8:08,2,10,2,10,3.8,10
2014/3/8 8:09,2.1,10,2.1,10,3.8,10
2014/3/8 8:10,2.2,10,2.2,10,3.5,9
2014/3/8 8:11,2.4,10,2.4,10,3.8,11
2014/3/8 8:12,2.5,10,2.5,10,3.9,10
2014/3/8 8:13,2.6,10,2.6,10,3.9,10
2014/3/8 8:14,2.5,10,2.6,10,4.2,9
2014/3/8 8:15,2.4,10,2.5,10,2.7,9
2014/3/8 8:16,2.2,10,2.4,10,3,10
2014/3/8 8:17,2.1,10,2.2,10,2.4,9
2014/3/8 8:18,1.9,10,2.1,10,3,9
2014/3/8 8:19,1.8,10,1.9,10,3.2,10
2014/3/8 8:20,1.8,10,1.8,10,4.1,10
2014/3/8 8:21,1.7,10,1.8,10,3.3,10
2014/3/8 8:22,1.6,10,1.7,10,2.1,9
2014/3/8 8:23,1.6,10,1.6,10,3.7,10
2014/3/8 8:24,1.6,10,1.6,10,3.8,10
2014/3/8 8:25,1.8,10,1.8,10,5.1,10
2014/3/8 8:26,1.8,10,1.8,10,3.9,9
2014/3/8 8:27,1.9,10,1.9,10,4.2,10
2014/3/8 8:28,2.1,10,2.1,10,4.1,10
2014/3/8 8:29,2.3,10,2.3,10,5.2,9
2014/3/8 8:30,2.4,10,2.4,10,4.9,9
2014/3/8 8:31,2.5,10,2.5,10,5.1,10
2014/3/8 8:32,2.6,10,2.6,10,5.1,10
2014/3/8 8:33,2.7,10,2.7,10,4.4,10
2014/3/8 8:34,2.7,10,2.7,10,3.8,9
2014/3/8 8:35,2.6,10,2.7,10,4.5,10
2014/3/8 8:36,2.8,10,2.8,10,4.8,10
2014/3/8 8:37,2.9,10,2.9,10,3.9,10
2014/3/8 8:38,2.9,10,2.9,10,4.3,10
2014/3/8 8:39,2.8,10,2.9,10,4.4,10
2014/3/8 8:40,2.8,10,2.9,10,3.5,10
2014/3/8 8:41,2.7,10,2.8,10,3.3,11
2014/3/8 8:42,2.8,10,2.8,10,3.6,10
2014/3/8 8:43,2.7,10,2.8,10,3.5,9
2014/3/8 8:44,2.6,10,2.7,10,2.2,9
2014/3/8 8:45,2.5,10,2.6,10,2.1,10
2014/3/8 8:46,2.3,10,2.4,10,2.5,11
2014/3/8 8:47,2,10,2.2,10,2.1,8
2014/3/8 8:48,1.9,10,2,10,2.5,10
2014/3/8 8:49,1.7,10,1.8,10,3.1,9
2014/3/8 8:50,1.7,10,1.7,10,3.3,11
2014/3/8 8:51,1.6,10,1.7,10,2.2,10
2014/3/8 8:52,1.4,10,1.6,10,2.1,10
2014/3/8 8:53,1.4,10,1.4,10,3.8,9
2014/3/8 8:54,1.5,10,1.5,10,2.7,12
2014/3/8 8:55,1.7,10,1.7,10,4.1,11
2014/3/8 8:56,1.8,10,1.8,10,3.2,10
2014/3/8 8:57,1.9,10,1.9,10,3,11
2014/3/8 8:58,2,10,2,10,4.3,10
2014/3/8 8:59,2.2,10,2.2,10,5.1,9
2014/3/8 9:00,2.2,10,2.2,10,5.1,10
2014/3/8 9:01,2.4,10,2.4,10,5.2,9
2014/3/8 9:02,2.6,10,2.6,10,6.1,10
2014/3/8 9:03,2.8,10,2.8,10,7,10
2014/3/8 9:04,3.1,10,3.1,10,6.8,10
2014/3/8 9:05,3.3,10,3.3,10,7.2,9
2014/3/8 9:06,3.6,10,3.6,10,6.7,10
2014/3/8 9:07,3.8,10,3.8,10,6.1,10
2014/3/8 9:08,3.9,10,3.9,10,5.5,9
2014/3/8 9:09,3.9,10,3.9,10,5.6,10
2014/3/8 9:10,4.1,10,4.1,10,6.4,10
2014/3/8 9:11,4.1,10,4.2,10,5.7,10
2014/3/8 9:12,4,10,4.1,10,5.2,9
2014/3/8 9:13,3.8,10,4,10,4.9,8
2014/3/8 9:14,3.7,10,3.8,10,5.7,9
2014/3/8 9:15,3.6,10,3.7,10,4.9,11
2014/3/8 9:16,3.4,10,3.6,10,5,10
2014/3/8 9:17,3.3,10,3.4,10,5.6,11
2014/3/8 9:18,3.1,10,3.2,10,2.9,9
2014/3/8 9:19,2.9,10,3,10,5.4,11
2014/3/8 9:20,2.8,10,2.9,10,6.9,9
2014/3/8 9:21,2.7,10,2.8,10,5.2,9
2014/3/8 9:22,2.7,10,2.7,10,4.5,8
2014/3/8 9:23,2.7,10,2.7,10,5,10
2014/3/8 9:24,2.6,10,2.7,10,5.4,9
2014/3/8 9:25,2.5,10,2.6,10,6.8,10
2014/3/8 9:26,2.5,10,2.5,10,5.8,11
2014/3/8 9:27,2.3,10,2.5,10,1.5,10
2014/3/8 9:28,2.3,10,2.3,10,3.2,12
2014/3/8 9:29,2.2,10,2.3,10,3.8,10
2014/3/8 9:30,2.1,10,2.2,10,5.5,9
2014/3/8 9:31,2.1,10,2.1,10,4.5,9
2014/3/8 9:32,2,10,2.1,10,4.9,9
2014/3/8 9:33,2,10,2,10,5.4,11
2014/3/8 9:34,2.2,10,2.2,10,6.5,10
2014/3/8 9:35,2.3,10,2.3,10,6.4,9
2014/3/8 9:36,2.3,10,2.3,10,6.4,9
2014/3/8 9:37,2.4,10,2.4,10,6.1,9
2014/3/8 9:38,2.5,10,2.5,10,5.8,9
2014/3/8 9:39,2.6,10,2.6,10,3.7,10
2014/3/8 9:40,2.6,10,2.6,10,5.5,10
2014/3/8 9:41,2.7,10,2.7,10,5.1,9
2014/3/8 9:42,2.8,11,2.8,11,4.2,14
2014/3/8 9:43,2.8,11,2.9,11,6.5,10
2014/3/8 9:44,2.6,11,2.8,11,3.5,9
2014/3/8 9:45,2.6,11,2.6,11,7.6,10
2014/3/8 9:46,2.7,11,2.7,11,8.2,10
2014/3/8 9:47,2.9,11,2.9,11,5.8,9
2014/3/8 9:48,3,11,3,11,5,10
2014/3/8 9:49,3.2,11,3.2,11,7.7,10
2014/3/8 9:50,3.4,11,3.4,11,8.3,10
2014/3/8 9:51,3.4,11,3.5,11,6.5,10
2014/3/8 9:52,3.5,11,3.5,11,6.5,9
2014/3/8 9:53,3.4,10,3.5,11,5.5,10
2014/3/8 9:54,3.6,10,3.6,10,8.1,9
2014/3/8 9:55,3.8,10,3.8,10,7.5,10
2014/3/8 9:56,3.7,10,3.8,10,7.2,9
2014/3/8 9:57,3.7,10,3.7,10,6.3,9
2014/3/8 9:58,3.8,10,3.8,10,6.3,9
2014/3/8 9:59,3.9,10,3.9,10,6.7,10
2014/3/8 10:00,3.7,10,3.9,10,4.9,10
2014/3/8 10:01,3.6,10,3.7,10,4.3,11
2014/3/8 10:02,3.6,10,3.7,10,5.2,11
2014/3/8 10:03,3.5,10,3.6,10,4.5,9
2014/3/8 10:04,3.4,10,3.5,10,4.8,9
2014/3/8 10:05,3.4,10,3.5,10,7.4,9
2014/3/8 10:06,3.4,10,3.4,10,8.6,9
2014/3/8 10:07,3.4,10,3.4,10,5.5,10
2014/3/8 10:08,3.2,10,3.4,10,5.8,10
2014/3/8 10:09,2.9,10,3.2,10,5.1,10
2014/3/8 10:10,2.8,10,2.9,10,5.4,11
2014/3/8 10:11,2.8,10,2.8,10,3.3,9
2014/3/8 10:12,2.7,10,2.8,10,5,9
2014/3/8 10:13,2.8,10,2.8,10,3.8,13
2014/3/8 10:14,2.8,11,2.8,10,4.9,12
2014/3/8 10:15,2.7,11,2.8,10,7.2,10
2014/3/8 10:16,2.8,11,2.8,10,5.2,10
2014/3/8 10:17,2.8,11,2.9,10,6.2,10
2014/3/8 10:18,2.8,11,2.8,10,6.4,8
2014/3/8 10:19,3,11,3,11,8.6,10
2014/3/8 10:20,3.3,10,3.3,11,7.5,11
2014/3/8 10:21,3.8,10,3.8,10,7.6,11
2014/3/8 10:22,4,10,4,10,7.5,10
2014/3/8 10:23,4.2,10,4.2,10,7.1,10
2014/3/8 10:24,4.5,10,4.5,10,7.1,10
2014/3/8 10:25,4.3,10,4.4,10,6.4,9
2014/3/8 10:26,4.2,10,4.3,10,5.4,10
2014/3/8 10:27,4.2,10,4.2,10,6.1,10
2014/3/8 10:28,4.2,10,4.2,10,5.8,8
2014/3/8 10:29,4.2,10,4.3,10,6.8,10
2014/3/8 10:30,4.1,10,4.2,10,6.5,11
2014/3/8 10:31,4,10,4.1,10,7.4,10
2014/3/8 10:32,3.8,10,4,10,5.8,11
2014/3/8 10:33,3.7,10,3.8,10,4.9,10
2014/3/8 10:34,3.5,10,3.7,10,9,10
2014/3/8 10:35,3.7,10,3.7,10,8.6,9
2014/3/8 10:36,3.7,10,3.7,10,6.4,10
2014/3/8 10:37,3.5,10,3.7,10,5.5,9
2014/3/8 10:38,3.6,10,3.6,10,6.9,10
2014/3/8 10:39,3.5,10,3.6,10,5.5,10
2014/3/8 10:40,3.6,10,3.6,10,6.2,10
2014/3/8 10:41,3.5,10,3.6,10,5.7,10
2014/3/8 10:42,3.3,10,3.4,10,3.8,8
2014/3/8 10:43,3.2,10,3.2,10,3.2,12
2014/3/8 10:44,2.9,10,3.2,10,3.3,11
2014/3/8 10:45,2.6,11,2.9,10,2.6,7
2014/3/8 10:46,2.4,11,2.5,10,3.1,8
2014/3/8 10:47,2.4,11,2.4,10,5.2,9
2014/3/8 10:48,2.3,11,2.4,10,4.7,12
2014/3/8 10:49,2.2,11,2.3,10,4.7,12
2014/3/8 10:50,1.8,12,2.1,10,2.2,14
2014/3/8 10:51,1.5,12,1.8,10,2,9
2014/3/8 10:52,1.5,11,1.5,10,4.3,10
2014/3/8 10:53,1.5,11,1.6,10,5,9
2014/3/8 10:54,1.4,11,1.5,10,2.5,7
2014/3/8 10:55,1.3,11,1.4,11,1.3,10
2014/3/8 10:56,1.3,10,1.4,11,2.2,10
2014/3/8 10:57,1.2,10,1.3,11,3.3,8
2014/3/8 10:58,1.2,9,1.2,11,3.8,8
2014/3/8 10:59,1.1,9,1.2,11,3,10
2014/3/8 11:00,1.2,9,1.2,12,2.6,8
2014/3/8 11:01,1.3,9,1.3,11,3.3,8
2014/3/8 11:02,1.2,9,1.3,11,2.4,10
2014/3/8 11:03,1.2,9,1.2,11,2.6,9
2014/3/8 11:04,1.4,9,1.4,11,3,10
2014/3/8 11:05,1.5,9,1.5,9,3.8,10
2014/3/8 11:06,1.7,9,1.7,9,7.1,9
2014/3/8 11:07,2,9,2,9,8.6,10
2014/3/8 11:08,2.2,9,2.2,9,6.8,9
2014/3/8 11:09,2.3,9,2.3,9,4.4,10
2014/3/8 11:10,2.3,9,2.3,9,4.1,9
2014/3/8 11:11,2.3,9,2.3,9,4.2,10
2014/3/8 11:12,2.6,9,2.6,9,8.1,9
2014/3/8 11:13,2.7,9,2.7,9,6.4,9
2014/3/8 11:14,3,9,3,9,9.5,9
2014/3/8 11:15,3.3,10,3.3,10,8.7,10
2014/3/8 11:16,3.2,10,3.3,10,8.6,10
2014/3/8 11:17,3.4,10,3.4,10,6.7,10
2014/3/8 11:18,3.3,10,3.4,10,6.7,10
2014/3/8 11:19,3.3,10,3.4,10,3.8,8
2014/3/8 11:20,3.3,10,3.4,10,4.4,9
2014/3/8 11:21,3.5,10,3.5,10,7.7,9
2014/3/8 11:22,3.4,10,3.5,10,7,10
2014/3/8 11:23,3.5,10,3.5,10,6.1,9
2014/3/8 11:24,3.4,10,3.5,10,7.2,9
2014/3/8 11:25,3.3,10,3.5,10,6.8,9
2014/3/8 11:26,3.2,10,3.3,10,5,10
2014/3/8 11:27,3,9,3.2,10,6.8,9
2014/3/8 11:28,2.8,10,2.9,10,2.1,13